Simultaneous Nadir Overpasses (SNOs) Predictions

Prediction of SNOs between AQUA and METOP-A Satellite Orbit:

Table of predicted SNOs for the next 14.0 days since TLE Epoch: 8/1/2015
Index Date (AQUA) Time (AQUA) Lat,Lon (AQUA) SZA (AQUA ) Date (METOP-A) Time (METOP-A) Lat,Lon (METOP-A) SZA (METOP-A ) Distance(km) Time Diff (sec)
1 08/01/2015 08:49:21 73.91, 41.82 55.92 08/01/2015 08:48:50 73.89, 41.77 55.91 2.48 31
2 08/01/2015 09:38:48 -73.99,-150.72 123.99 08/01/2015 09:39:30 -74.00,-150.66 123.99 1.99 42
3 08/04/2015 04:23:36 73.91, 108.25 56.64 08/04/2015 04:23:10 73.94, 108.28 56.68 3.13 26
4 08/04/2015 05:13:03 -73.98, -84.27 123.27 08/04/2015 05:13:51 -73.99, -84.26 123.27 1.47 48
5 08/06/2015 23:08:13 -73.31, 8.32 123.25 08/06/2015 23:07:06 -73.26, 5.79 123.18 81.32 67
6 08/06/2015 23:57:52 73.92, 174.66 57.42 08/06/2015 23:57:32 73.93, 174.65 57.43 0.60 20
7 08/07/2015 00:47:19 -73.98, -17.84 122.51 08/07/2015 00:48:13 -73.99, -17.88 122.52 1.02 54
8 08/09/2015 18:42:33 -73.54, 74.28 122.22 08/09/2015 18:41:23 -73.50, 72.72 122.18 49.50 70
9 08/09/2015 19:32:08 73.95,-118.97 58.23 08/09/2015 19:31:53 73.96,-118.86 58.25 3.66 15
10 08/09/2015 20:21:35 -74.00, 48.55 121.70 08/09/2015 20:22:34 -74.02, 48.61 121.69 3.11 59
11 08/12/2015 14:16:52 -73.78, 140.20 121.13 08/12/2015 14:15:39 -73.73, 139.65 121.15 17.75 73
12 08/12/2015 15:06:22 73.93, -52.50 59.05 08/12/2015 15:06:14 73.94, -52.51 59.06 1.21 8
13 08/12/2015 15:55:49 -73.98, 115.03 120.89 08/12/2015 15:56:55 -74.01, 114.97 120.88 3.24 66




NCC Satellite Simultaneous Nadir Overpasses (SNOs) Prediction Service
